Погода в Мамхеге

Россия / Республика Адыгея     45°00′25″N   40°13′15″E
темп.,
°C
ветер,
м/с
пор.,
м/с
влажн.,
%
обл.,
%
осадки,
мм/ч
давл.,
гПа
погр.,
м
14 мая, пт
пт1400:00+15вюв512814 0.0 1010192
03:00+13ююв22790 0.0 101018
06:00+15вюв33660 0.0 101025
09:00+22вюв45585 0.0 1010211
12:00+27вюв46515 0.0 1010564
15:00+30в35510 0.0 1010860
18:00+28св127138 0.0 100921
21:00+21с1184100 0.0 101011
15 мая, сб
сб1500:00+17зюз468836 0.0 101193
03:00+15зюз35941 0.0 101272
06:00+14зюз35870 0.0 1014108
09:00+20з23695 0.0 1014367
12:00+24сз32650 0.0 1014589
15:00+26с226111 0.0 1013984
18:00+26ссв22731 0.0 1012223
21:00+20св33870 0.0 101225
16 мая, вс
вс1600:00+18св22935 1.3 101127
03:00+17юв01955 1.4 101011
06:00+18зюз119686 0.0 101041
09:00+22ссв128491 0.0 1009435
12:00+27всв346982 0.0 10081057
15:00+28всв5663100 0.0 10061421
18:00+26в48761 0.0 1004336
21:00+21в410851 0.0 1004169
17 мая, пн
пн1700:00+18в358214 0.0 100364
03:00+17в11928 0.0 100314
06:00+18юз249421 0.0 100498
09:00+22зсз5778100 0.0 1005484
12:00+25зсз5662100 0.0 1007886
15:00+24зсз3564100 0.5 1009861
18:00+17сз2493100 3.4 101091
21:00+16зюз3692100 5.5 1011121
18 мая, вт
вт1800:00+16з2290100 0.0 101132
03:00+15з399299 0.9 1011300
06:00+14зюз3996100 2.7 1013285
09:00+16зюз3688100 5.6 1014408
12:00+20зюз4676100 0.7 10141020
15:00+22зсз46674 0.7 10141129
18:00+21з47750 0.1 1014310
21:00+15зюз36860 0.1 101686